FW5349 Weather Reports


Display with metric or nautical units.
time (UTC)temp
F
wind
direction
speed
MPH
gust
MPH
rain 1hr
in
rain 24hr
in
rain mn
in
humidity
%
barometer
mb
20260505001522 48 197 2.0 7.0 0.00 0.06 0.06 69 1007.2
20260505000021 48 237 2.0 8.0 0.00 0.06 0.06 69 1006.9
20260504234518 48 223 5.0 9.0 0.00 0.06 0.06 69 1006.8
20260504233017 48 224 4.0 14.0 0.00 0.06 0.06 70 1006.6
20260504231516 48 213 3.0 11.0 0.00 0.06 0.06 70 1006.7
20260504230015 48 185 2.0 8.0 0.00 0.06 0.06 70 1006.4
20260504224514 49 173 5.0 10.0 0.00 0.07 0.06 69 1006.1
20260504223013 49 181 3.0 10.0 0.00 0.07 0.06 69 1005.9
20260504221511 49 216 3.0 12.0 0.00 0.07 0.06 69 1005.9
20260504220010 50 249 8.0 16.0 0.00 0.07 0.06 68 1006.0
20260504214509 50 201 9.0 20.0 0.00 0.08 0.06 66 1005.7
20260504213007 51 240 4.0 19.0 0.00 0.08 0.06 64 1005.5
20260504211505 53 246 7.0 17.0 0.01 0.08 0.06 60 1005.2
20260504210007 54 205 6.0 18.0 0.01 0.08 0.06 57 1005.3
20260504204502 54 202 5.0 13.0 0.01 0.08 0.06 56 1005.2
20260504203105 56 242 5.0 15.0 0.01 0.08 0.06 51 1005.1
20260504201557 59 195 5.0 12.0 0.00 0.07 0.05 46 1004.7
20260504194603 61 200 13.0 22.0 0.00 0.08 0.05 32 1004.0
20260504193056 61 232 11.0 22.0 0.00 0.08 0.05 32 1004.0
20260504191608 61 243 12.0 22.0 0.00 0.08 0.05 32 1004.0
20260504190053 61 256 13.0 23.0 0.00 0.08 0.05 34 1003.8
20260504184552 61 268 17.0 24.0 0.00 0.09 0.05 32 1003.8
20260504183050 60 258 16.0 28.0 0.00 0.09 0.05 32 1003.9
20260504181554 60 256 16.0 25.0 0.00 0.09 0.05 32 1004.0
20260504180047 59 263 14.0 26.0 0.00 0.09 0.05 33 1003.9
20260504174545 59 248 14.0 31.0 0.00 0.09 0.05 36 1004.0
20260504173043 59 267 15.0 34.0 0.01 0.09 0.05 33 1004.1
20260504171548 58 254 15.0 29.0 0.01 0.09 0.05 34 1004.0
20260504081506 39 266 16.0 29.0 0.00 0.08 0.02 82 996.2
20260504044532 36 311 15.0 30.0 0.00 0.07 0.01 86 991.2
20260504043042 36 277 15.0 35.0 0.00 0.07 0.01 87 990.8
20260504041534 36 257 12.0 26.0 0.01 0.07 0.01 86 990.5
20260504040026 36 284 16.0 24.0 0.01 0.07 0.01 86 989.9
20260504034520 36 285 15.0 31.0 0.01 0.07 0.01 86 989.4
20260504033019 36 270 14.0 31.0 0.01 0.07 0.01 86 988.8
20260504031513 36 323 13.0 28.0 0.00 0.06 0.00 86 988.4
20260504030015 35 293 15.0 31.0 0.00 0.06 0.00 86 987.9
20260504024507 36 287 14.0 31.0 0.00 0.06 0.06 86 987.5
20260504023004 36 266 14.0 31.0 0.00 0.06 0.06 85 986.7
20260504021502 38 267 12.0 28.0 0.00 0.06 0.06 85 986.2
20260504020001 38 299 14.0 27.0 0.00 0.06 0.06 85 985.5
20260504014502 38 271 12.0 23.0 0.00 0.06 0.06 86 984.8
20260504013121 37 326 14.0 30.0 0.01 0.06 0.06 86 983.9
20260504011603 37 320 12.0 29.0 0.01 0.06 0.06 87 983.5
20260504010105 37 299 16.0 30.0 0.01 0.06 0.06 87 983.6
20260504004607 37 274 19.0 29.0 0.01 0.06 0.06 87 982.8
20260504003053 38 317 15.0 29.0 0.00 0.06 0.06 87 982.2